Lid_Strength_Index
11 15 17 15 14 13 15 15 16 15 12 14 14 13 12 12 11 12 11 10 9 8 7 6 5 5 5 5 5 5 5 4 4 4 4 2 2 1 1 1 1 -0 0 0
15 17 13 12 12 13 14 16 16 14 12 13 14 14 12 12 11 11 11 11 9 8 7 6 6 6 6 6 5 5 5 4 4 3 3 2 1 1 1 1 1 0 0 0
16 14 11 12 13 14 15 16 16 16 13 13 15 16 13 12 11 10 10 10 9 9 8 7 7 7 7 7 7 6 5 4 4 3 3 2 1 1 1 1 1 0 0 1
14 12 13 14 14 13 16 13 13 14 16 19 14 22 15 14 13 11 11 10 10 9 7 7 8 8 8 8 8 7 5 1 4 3 3 3 3 3 2 1 1 1 0 1
16 14 15 15 14 12 14 12 13 14 16 19 17 20 17 14 15 13 12 11 10 9 8 8 8 8 8 8 9 8 5 2 4 3 2 2 2 2 1 1 2 2 3 3
14 12 13 13 12 12 12 13 14 15 16 22 17 20 22 18 15 13 12 11 11 10 8 8 7 8 8 9 10 8 6 4 3 3 2 2 2 2 3 4 5 5 5 5
16 15 13 11 14 13 13 16 21 23 23 21 16 20 18 14 13 13 12 11 11 10 9 9 9 9 9 9 11 9 7 7 5 3 3 3 2 3 4 5 5 5 6 6
20 21 15 12 14 15 15 16 21 27 23 21 17 20 16 13 12 11 11 11 11 10 9 9 9 9 9 10 11 10 9 8 7 7 5 4 4 5 6 5 6 6 6 7
19 19 13 12 12 13 15 17 14 18 24 22 20 16 13 13 13 12 12 12 12 11 10 10 9 9 10 10 10 10 10 9 8 8 8 9 8 9 8 7 7 7 7 7
17 21 16 13 12 13 14 13 18 19 26 26 21 19 19 16 15 13 13 13 12 12 11 10 9 9 9 9 10 9 10 11 9 9 10 10 10 10 10 10 10 10 9 9
17 19 18 16 16 16 16 16 16 16 18 21 23 21 15 15 14 14 13 13 13 12 12 11 11 9 9 9 9 10 10 11 11 10 10 11 11 11 11 11 11 10 10 10
17 18 22 19 16 14 14 15 15 20 19 19 19 20 13 13 13 13 13 13 13 13 12 12 11 11 10 10 10 10 10 10 10 10 10 11 11 10 11 11 11 11 11 11
17 21 26 22 18 16 16 15 15 15 16 19 22 20 13 13 14 13 13 14 13 13 12 12 12 12 11 11 11 10 10 10 10 10 10 11 11 11 11 11 11 11 11 11
15 19 21 23 20 18 18 17 16 16 19 20 19 19 16 15 14 14 14 14 14 14 13 12 12 12 12 11 11 11 10 10 10 10 11 11 11 11 11 11 11 11 11 11
18 26 20 20 20 19 18 17 17 17 17 19 19 18 15 15 15 14 13 13 13 13 13 13 12 12 12 11 11 11 11 10 10 10 10 11 11 11 11 11 11 10 11 11
19 25 23 24 21 21 21 18 16 16 16 17 18 18 14 14 14 14 13 13 14 14 13 12 12 12 12 11 11 11 11 11 11 11 11 11 10 10 11 10 10 10 10 10
21 24 25 28 23 23 26 20 18 16 16 16 19 16 14 15 14 14 14 13 13 13 13 12 12 12 11 12 11 12 11 11 12 12 12 11 11 11 11 10 10 11 11 11
22 22 24 28 25 30 20 18 19 16 15 16 16 15 14 13 13 13 13 13 13 13 12 12 11 11 11 11 12 12 12 13 13 13 13 13 12 12 11 11 11 11 11 12
18 20 27 27 27 23 21 19 20 20 18 15 15 14 14 14 14 15 12 12 13 12 12 11 11 12 14 14 13 14 14 14 14 14 14 13 13 12 12 12 12 12 12 12
19 19 23 28 27 28 20 19 16 16 21 16 14 14 15 14 18 17 13 12 12 11 11 11 11 13 14 15 14 15 15 16 15 14 14 14 13 13 13 12 12 12 12 12
26 25 26 25 27 24 19 17 16 22 18 16 13 13 14 15 15 13 12 12 12 11 11 10 12 14 15 15 14 16 16 16 15 14 14 14 14 13 13 13 12 12 11 11
23 25 26 27 30 26 17 17 19 17 15 14 13 13 13 13 13 12 12 12 11 11 11 12 14 15 16 15 15 16 17 16 16 15 15 15 15 13 13 14 12 12 12 11
22 21 24 22 22 18 15 17 15 14 14 15 13 12 12 13 13 12 12 12 11 11 12 13 14 15 16 16 16 16 17 17 17 18 18 17 16 15 14 14 14 12 12 12
19 18 21 20 19 18 17 16 15 14 14 14 13 12 12 12 12 13 12 12 12 12 13 14 15 15 16 19 18 19 19 19 22 22 19 18 18 17 16 15 14 12 12 12
19 18 20 21 19 18 17 15 14 14 14 14 13 13 12 12 13 12 12 12 12 12 13 14 15 16 17 18 20 23 22 23 21 21 19 19 18 20 19 17 16 14 12 11
19 20 19 20 17 17 16 16 15 14 14 14 13 14 12 12 12 12 12 12 12 13 15 17 17 17 19 20 22 25 26 24 23 21 20 20 20 21 19 19 17 13 11 10